Weather History for Chicago Lansing, IL

Change the Weather History Date:

Friday, June 14, 2013

  Actual Average (KMDW) Record (KMDW)
Temperature  
Mean Temperature 62 °F 71 °F  
Max Temperature 72 °F 80 °F 99 °F (1987)
Min Temperature 53 °F 62 °F 40 °F (1933)
Degree Days  
Heating Degree Days 2 1  
Month to date heating degree days 23  
Since 1 June heating degree days 23  
Since 1 July heating degree days 5982  
Cooling Degree Days 0 7  
Month to date cooling degree days 68  
Year to date cooling degree days 142  
Since 1 June cooling degree days 68  
Growing Degree Days 12 (Base 50)    
Moisture  
Dew Point 53 °F    
Average Humidity 72    
Maximum Humidity 87    
Minimum Humidity 50    
Precipitation  
Precipitation 0.00 in 0.14 in 2.58 in (1949)
Month to date precipitation 2.04  
Year to date precipitation 16.53  
Sea Level Pressure  
Sea Level Pressure 30.08 in    
Wind  
Wind Speed 7 mph (NNE)    
Max Wind Speed 12 mph    
Max Gust Speed 17 mph    
Visibility 10 miles    
Events      
T = Trace of Precipitation, MM = Missing Value Source: NWS Daily Summary

Daily Weather History Graph

Daily Weather History Graph

Search for Another Location

Airport:

Trip Planner

Search our weather history database for the weather conditions in past years. The results will help you decide how hot, cold, wet, or windy it might be!

Date:

Astronomy

Jun. 14, 2013 Rise Set
Actual Time 5:15 AM CDT 8:25 PM CDT
Civil Twilight 4:41 AM CDT 8:59 PM CDT
Nautical Twilight 3:57 AM CDT 9:43 PM CDT
Astronomical Twilight 3:05 AM CDT 10:35 PM CDT
Moon 10:54 AM CDT (6/14) 11:57 PM CDT (6/14)
Length of Visible Light 16h 18m
Length of Day
15h 10m
Waxing Crescent, 30% of the Moon is Illuminated
Jun 14
Waxing Crescent
Jun 16
First Quarter
Jun 23
Full
Jun 29
Last Quarter
Jul 8
New

Hourly Weather History & Observations

Time (CDT) Temp. Dew Point Humidity Pressure Visibility Wind Dir Wind Speed Gust Speed Precip Events Conditions
12:15 AM 55.9 °F 50.4 °F 82% 30.04 in 10.0 mi NNE 9.2 mph - N/A   Clear
12:35 AM 56.1 °F 50.2 °F 80% 30.04 in 10.0 mi North 11.5 mph 16.1 mph N/A   Clear
12:55 AM 56.1 °F 50.4 °F 81% 30.04 in 10.0 mi NNE 8.1 mph - N/A   Clear
1:15 AM 56.5 °F 50.4 °F 80% 30.04 in 10.0 mi NNE 8.1 mph - N/A   Clear
1:35 AM 56.5 °F 50.4 °F 80% 30.04 in 10.0 mi North 8.1 mph - N/A   Clear
1:55 AM 56.3 °F 50.4 °F 80% 30.04 in 10.0 mi North 9.2 mph 16.1 mph N/A   Clear
2:15 AM 56.3 °F 50.4 °F 80% 30.04 in 10.0 mi NNE 10.4 mph - N/A   Clear
2:35 AM 56.1 °F 50.5 °F 82% 30.04 in 10.0 mi NNE 8.1 mph 17.3 mph N/A   Clear
2:55 AM 55.8 °F 50.4 °F 82% 30.04 in 10.0 mi NNE 10.4 mph - N/A   Clear
3:15 AM 55.4 °F 50.5 °F 84% 30.04 in 10.0 mi North 8.1 mph - N/A   Clear
3:35 AM 55.0 °F 50.7 °F 85% 30.04 in 10.0 mi North 8.1 mph - N/A   Clear
3:55 AM 55.0 °F 50.4 °F 84% 30.04 in 10.0 mi North 10.4 mph - N/A   Clear
4:15 AM 55.0 °F 50.2 °F 84% 30.04 in 10.0 mi North 9.2 mph 16.1 mph N/A   Clear
4:35 AM 54.9 °F 50.2 °F 84% 30.06 in 10.0 mi NNW 5.8 mph - N/A   Clear
4:55 AM 54.5 °F 50.0 °F 85% 30.06 in 10.0 mi North 4.6 mph - N/A   Clear
5:15 AM 54.1 °F 50.2 °F 86% 30.06 in 10.0 mi NNW 5.8 mph - N/A   Clear
5:35 AM 53.8 °F 50.0 °F 87% 30.06 in 10.0 mi North 4.6 mph - N/A   Clear
5:55 AM 54.7 °F 50.2 °F 85% 30.08 in 10.0 mi North 4.6 mph - N/A   Clear
6:15 AM 55.4 °F 50.4 °F 83% 30.08 in 10.0 mi North 4.6 mph - N/A   Clear
6:35 AM 56.3 °F 50.7 °F 82% 30.08 in 10.0 mi NNE 6.9 mph - N/A   Clear
6:55 AM 57.0 °F 50.9 °F 80% 30.09 in 10.0 mi North 8.1 mph - N/A   Clear
7:15 AM 57.7 °F 51.4 °F 79% 30.10 in 10.0 mi NNE 9.2 mph - N/A   Clear
7:35 AM 58.6 °F 52.0 °F 79% 30.10 in 10.0 mi NNE 6.9 mph - N/A   Clear
7:55 AM 59.2 °F 52.0 °F 77% 30.11 in 10.0 mi NE 6.9 mph - N/A   Clear
8:15 AM 60.1 °F 52.3 °F 76% 30.11 in 10.0 mi NE 8.1 mph - N/A   Clear
8:35 AM 61.2 °F 53.1 °F 75% 30.12 in 10.0 mi NE 5.8 mph - N/A   Clear
8:55 AM 61.5 °F 53.1 °F 74% 30.14 in 10.0 mi North 4.6 mph - N/A   Clear
9:15 AM 62.6 °F 53.8 °F 73% 30.13 in 10.0 mi NNE 6.9 mph - N/A   Clear
9:35 AM 63.5 °F 53.8 °F 71% 30.13 in 10.0 mi North 6.9 mph - N/A   Clear
9:55 AM 64.8 °F 54.7 °F 70% 30.13 in 10.0 mi NE 6.9 mph - N/A   Clear
10:15 AM 65.3 °F 55.2 °F 70% 30.13 in 10.0 mi NNW 6.9 mph - N/A   Clear
10:35 AM 65.5 °F 55.2 °F 69% 30.13 in 10.0 mi North 3.5 mph - N/A   Clear
10:55 AM 66.4 °F 55.8 °F 69% 30.13 in 10.0 mi NNE 6.9 mph - N/A   Clear
11:15 AM 66.7 °F 56.1 °F 69% 30.12 in 10.0 mi NNE 6.9 mph - N/A   Clear
11:35 AM 67.1 °F 55.8 °F 67% 30.11 in 10.0 mi NNE 4.6 mph - N/A   Clear
11:55 AM 67.3 °F 55.8 °F 66% 30.12 in 10.0 mi North 3.5 mph - N/A   Clear
12:15 PM 68.2 °F 56.7 °F 67% 30.11 in 10.0 mi NNE 6.9 mph - N/A   Clear
12:35 PM 68.7 °F 57.0 °F 66% 30.10 in 10.0 mi NE 6.9 mph - N/A   Clear
12:55 PM 69.8 °F 57.2 °F 64% 30.11 in 10.0 mi North 4.6 mph - N/A   Clear
1:15 PM 70.2 °F 57.0 °F 63% 30.12 in 10.0 mi North 5.8 mph - N/A   Clear
1:35 PM 71.1 °F 56.5 °F 60% 30.12 in 10.0 mi North 6.9 mph - N/A   Clear
1:55 PM 71.8 °F 55.8 °F 57% 30.12 in 10.0 mi NE 8.1 mph - N/A   Clear
2:15 PM 71.8 °F 54.5 °F 54% 30.11 in 10.0 mi North 5.8 mph - N/A   Clear
2:35 PM 72.0 °F 53.4 °F 52% 30.10 in 10.0 mi NE 5.8 mph - N/A   Clear
2:55 PM 72.5 °F 54.1 °F 52% 30.10 in 10.0 mi NNE 6.9 mph - N/A   Clear
3:15 PM 72.5 °F 52.7 °F 50% 30.09 in 10.0 mi NNE 6.9 mph - N/A   Clear
3:35 PM 72.5 °F 53.6 °F 51% 30.09 in 10.0 mi NNE 8.1 mph - N/A   Clear
3:55 PM 71.6 °F 52.5 °F 51% 30.09 in 10.0 mi NE 4.6 mph - N/A   Clear
4:15 PM 71.6 °F 53.2 °F 52% 30.08 in 10.0 mi NNE 6.9 mph - N/A   Clear
4:35 PM 71.6 °F 55.0 °F 56% 30.08 in 10.0 mi NE 8.1 mph - N/A   Clear
4:55 PM 70.7 °F 52.0 °F 51% 30.07 in 10.0 mi NE 9.2 mph - N/A   Clear
5:15 PM 70.2 °F 52.7 °F 54% 30.07 in 10.0 mi ENE 11.5 mph - N/A   Clear
5:35 PM 69.4 °F 52.3 °F 54% 30.06 in 10.0 mi NE 9.2 mph - N/A   Clear
5:55 PM 68.4 °F 52.2 °F 56% 30.05 in 10.0 mi ENE 11.5 mph 16.1 mph N/A   Clear
6:15 PM 67.8 °F 52.9 °F 59% 30.05 in 10.0 mi ENE 10.4 mph - N/A   Clear
6:35 PM 66.6 °F 51.6 °F 59% 30.05 in 10.0 mi NE 10.4 mph - N/A   Clear
6:55 PM 65.5 °F 51.4 °F 60% 30.05 in 10.0 mi ENE 9.2 mph - N/A   Clear
7:15 PM 64.4 °F 51.8 °F 64% 30.04 in 10.0 mi ENE 6.9 mph - N/A   Clear
7:35 PM 63.5 °F 50.9 °F 63% 30.04 in 10.0 mi NE 8.1 mph - N/A   Clear
7:55 PM 62.6 °F 50.9 °F 66% 30.04 in 10.0 mi NE 6.9 mph - N/A   Clear
8:15 PM 61.3 °F 51.6 °F 70% 30.04 in 10.0 mi NE 5.8 mph - N/A   Clear
8:35 PM 61.0 °F 51.4 °F 71% 30.05 in 10.0 mi Calm Calm - N/A   Clear
8:55 PM 59.9 °F 51.8 °F 75% 30.05 in 10.0 mi NNE 3.5 mph - N/A   Clear
9:15 PM 59.9 °F 52.2 °F 76% 30.06 in 10.0 mi NNE 3.5 mph - N/A   Clear
9:35 PM 59.4 °F 52.3 °F 78% 30.06 in 10.0 mi Calm Calm - N/A   Clear
9:55 PM 59.2 °F 52.7 °F 79% 30.06 in 10.0 mi Calm Calm - N/A   Clear
10:15 PM 58.5 °F 52.7 °F 81% 30.06 in 10.0 mi Calm Calm - N/A   Clear
10:35 PM 58.8 °F 53.1 °F 81% 30.06 in 10.0 mi Calm Calm - N/A   Clear
10:55 PM 58.5 °F 53.2 °F 83% 30.06 in 10.0 mi NE 3.5 mph - N/A   Clear
11:15 PM 58.5 °F 53.1 °F 82% 30.05 in 10.0 mi NE 3.5 mph - N/A   Clear
11:35 PM 58.1 °F 53.6 °F 85% 30.05 in 10.0 mi NE 3.5 mph - N/A   Clear
11:55 PM 57.7 °F 53.6 °F 86% 30.05 in 10.0 mi Calm Calm - N/A   Clear